2CRSH EGNF-ZZZZ

Flight info

Callsign 2CRSH
Flight time N/A
Altitude 2000
Route VFR
Aircraft P28B/L-SDFGY/S

Departure

Time 2026-04-29 18:52
Airport Netherthorpe Airfield (EGNF)

Arrival

Time N/A
Airport ZZZZ
Time Latitude Longitude Altitude Speed Heading
2026-04-29 18:45 53.31687 -1.19427 231 ft 0 kts 294°
2026-04-29 18:49 53.31695 -1.19456 234 ft 9 kts 292°
2026-04-29 18:49 53.31662 -1.19593 240 ft 16 kts 234°
2026-04-29 18:49 53.31618 -1.19706 245 ft 8 kts 238°
2026-04-29 18:49 53.31581 -1.19791 247 ft 9 kts 235°
2026-04-29 18:50 53.31548 -1.19863 250 ft 6 kts 234°
2026-04-29 18:50 53.31535 -1.19893 251 ft 0 kts 235°
2026-04-29 18:50 53.31531 -1.19903 251 ft 7 kts 230°
2026-04-29 18:51 53.31568 -1.19922 250 ft 14 kts 52°
2026-04-29 18:51 53.31652 -1.19715 244 ft 46 kts 58°
2026-04-29 18:51 53.31923 -1.19112 430 ft 72 kts 51°
2026-04-29 18:51 53.32279 -1.18474 697 ft 74 kts 46°
2026-04-29 18:52 53.32637 -1.17960 901 ft 77 kts 62°
2026-04-29 18:52 53.32461 -1.17053 909 ft 103 kts 127°
2026-04-29 18:52 53.31912 -1.16203 926 ft 108 kts 129°
2026-04-29 18:52 53.31173 -1.16132 1137 ft 120 kts 190°
2026-04-29 18:53 53.30405 -1.16810 1207 ft 130 kts 202°
2026-04-29 18:53 53.29784 -1.17983 1233 ft 144 kts 232°
2026-04-29 18:53 53.29234 -1.19438 1282 ft 143 kts 230°
2026-04-29 18:53 53.28765 -1.20818 1594 ft 134 kts 235°
2026-04-29 18:54 53.28839 -1.22340 1708 ft 138 kts 309°
2026-04-29 18:54 53.29438 -1.23531 1838 ft 138 kts 314°
2026-04-29 18:54 53.30070 -1.24854 1756 ft 149 kts 317°
2026-04-29 18:54 53.30880 -1.25693 1737 ft 133 kts
2026-04-29 18:55 53.31518 -1.25018 1648 ft 108 kts 73°
2026-04-29 18:55 53.31655 -1.23850 1427 ft 101 kts 75°
2026-04-29 18:55 53.31781 -1.22765 1339 ft 89 kts 81°
2026-04-29 18:55 53.31664 -1.21879 1106 ft 77 kts 115°
2026-04-29 18:56 53.31386 -1.21124 821 ft 73 kts 98°
2026-04-29 18:56 53.31420 -1.20338 432 ft 69 kts 67°
2026-04-29 18:56 53.31669 -1.19693 244 ft 56 kts 55°
2026-04-29 18:56 53.31791 -1.19379 233 ft 6 kts 116°
2026-04-29 18:57 53.31770 -1.19375 233 ft 6 kts 178°
2026-04-29 18:57 53.31750 -1.19383 233 ft 0 kts 336°